#timestamp,LO_Frequency,Hit,StdDev 
1515614415.7,286046999.3,N
1515614435.5,286046998.7,N
1515614455.3,286046997.1,Y
1515614475.2,286046999.9,P
1515614495.0,286047002.1,N
1515614495.9,286047002.1,N
1515614515.8,286047001.6,N
1515614535.6,286047001.7,N
1515614555.4,286047001.3,N
1515614575.3,286047004.2,N
1515614595.1,286047003.3,N
1515614615.8,286047003.9,N
1515614635.7,286047003.2,N
1515614655.5,286047003.8,N
1515614675.4,286047003.5,N
1515614695.2,286047003.1,N
1515614715.0,286047003.1,N
1515614715.9,286047003.1,N
1515614735.8,286047001.7,N
1515614755.6,286047003.9,N
1515614775.4,286047001.3,N
1515614795.3,286047000.2,N
1515614815.1,286047000.9,N
1515614835.9,286047002.6,N
1515614855.7,286047002.0,N
1515614875.5,286047001.7,N
1515614895.4,286047002.8,N
1515614915.2,286047002.4,N
1515614935.0,286047001.9,N
1515614935.9,286047001.9,N
1515614955.8,286046999.7,N
1515614975.6,286046999.8,N
1515614995.5,286047000.0,N
1515615015.3,286047000.0,N
1515615035.1,286047002.4,N
1515615055.9,286047000.9,N
1515615075.7,286047000.3,N
1515615095.5,286047000.1,N
1515615115.4,286047002.6,N
1515615135.2,286047002.3,N
1515615155.1,286047004.0,Y
1515615156.0,286047004.0,P
1515615175.8,286047000.1,N
1515615195.6,286046999.7,N
1515615215.5,286047002.3,N
1515615235.3,286047002.3,N
1515615255.1,286046999.9,N
1515615275.9,286046998.1,N
1515615295.7,286047002.4,N
1515615315.6,286047004.4,N
1515615335.4,286047003.9,N
1515615355.2,286047001.3,N
1515615375.1,286047002.1,N
1515615376.0,286047002.1,N
1515615395.8,286047000.5,N
1515615415.6,286046998.2,N
1515615435.5,286047001.2,N
1515615455.3,286047000.8,N
1515615475.2,286046996.6,N
1515615495.9,286046998.8,N
1515615515.7,286047000.8,N
1515615535.6,286047000.8,N
1515615555.4,286047000.5,N
1515615575.2,286046999.7,N
1515615595.1,286047004.0,N
1515615596.0,286047004.0,N
1515615615.8,286047001.4,N
1515615635.7,286047001.3,N
1515615655.5,286047004.2,N
1515615675.3,286047004.4,N
1515615695.2,286047002.4,N
1515615715.0,286047000.2,N
1515615715.9,286047000.2,N
1515615735.8,286046999.7,N
1515615755.6,286047000.6,N
1515615775.4,286047000.4,N
1515615795.3,286046999.7,N
1515615815.1,286047000.2,N
1515615835.8,286047001.2,N
1515615855.7,286047000.9,N
1515615875.5,286047000.4,N
1515615895.3,286046998.1,N
1515615915.2,286046998.2,N
1515615935.0,286047001.1,N
1515615935.9,286047001.1,N
1515615955.8,286046998.7,N
1515615975.6,286046998.8,N
1515615995.4,286046998.2,N
1515616015.3,286046998.1,N
1515616035.1,286046998.3,N
1515616055.9,286046998.7,N
1515616075.7,286046999.0,N
1515616095.5,286046998.1,N
1515616115.4,286047001.1,N
1515616135.2,286046998.5,N
1515616155.0,286046999.5,N
1515616155.9,286046999.5,N
1515616175.8,286046998.2,N
1515616195.6,286046998.9,N
1515616215.5,286046998.2,N
1515616235.3,286046998.1,N
1515616255.1,286047000.4,N
1515616275.9,286047000.0,N
1515616295.7,286046998.2,N
1515616315.5,286046998.3,N
1515616335.4,286046998.3,N
1515616355.2,286047000.0,N
1515616375.1,286047000.1,N
1515616376.0,286047000.1,N
1515616395.8,286046999.8,N
1515616415.6,286047000.3,N
1515616435.5,286047000.6,N
1515616455.3,286047000.3,N
1515616475.1,286047000.4,N
1515616495.9,286047000.3,N
1515616515.7,286046999.9,N
1515616535.6,286047000.1,N
1515616555.4,286046999.9,N
1515616575.2,286047000.2,N
1515616595.1,286047000.6,N
1515616596.0,286047000.6,N
1515616615.8,286047002.7,N
1515616635.7,286047000.0,N
1515616655.5,286047000.2,N
1515616675.5,286047002.5,N
1515616695.3,286047002.8,N
1515616715.2,286046999.7,N
1515616735.0,286047002.2,N
1515616735.9,286047002.2,N
1515616755.7,286047002.0,N
1515616775.6,286047001.9,N
1515616795.4,286046999.7,N
1515616815.3,286047001.9,N
1515616835.1,286047000.0,N
1515616836.0,286047000.0,N
1515616885.9,286046999.8,E
1515616895.8,286047002.1,N
1515616915.6,286047002.3,P
1515616935.5,286046999.7,P
1515616955.3,286046999.9,N
1515616975.1,286047001.8,N
1515616995.9,286047002.8,N
1515617015.7,286047001.5,N
1515617035.6,286047002.3,N
1515617055.4,286047000.8,N
1515617075.2,286047000.4,N
1515617095.1,286046999.9,N
1515617096.0,286046999.9,N
1515617115.8,286047002.5,N
1515617135.7,286047002.6,N
1515617155.5,286047001.3,N
1515617175.3,286047003.9,Y
1515617195.2,286047000.3,P
1515617215.0,286047006.6,P
1515617215.9,286047006.6,N
1515617235.7,286047024.5,Y
1515617255.6,286047022.2,P
1515617275.4,286047017.4,N
1515617295.3,286047012.7,N
1515617315.1,286047011.7,N
1515617316.0,286047011.7,N
1515617335.8,286047008.7,N
1515617355.7,286047005.7,N
1515617375.5,286047003.7,N
1515617395.4,286047001.3,N
1515617415.2,286047001.6,N
1515617435.0,286047002.2,N
1515617435.9,286047002.2,N
1515617455.8,286046999.9,N
1515617475.6,286046998.1,N
1515617495.5,286046999.3,N
1515617515.3,286046999.6,N
1515617535.1,286046997.4,N
1515617555.9,286046995.0,N
1515617575.7,286046995.0,N
1515617595.5,286046995.4,N
1515617615.4,286046996.2,N
1515617635.2,286046993.3,N
1515617655.1,286046995.2,N
1515617656.0,286046995.2,N
1515617675.8,286046996.2,N
1515617695.6,286046995.0,N
1515617715.5,286046995.3,N
1515617735.3,286046995.4,N
1515617755.2,286046997.9,N
1515617775.9,286046997.5,N
1515617795.7,286046995.2,N
1515617815.6,286046994.0,N
1515617835.4,286046995.5,N
1515617855.3,286046993.3,N
1515617875.1,286046995.8,N
1515617876.0,286046995.8,N
1515617895.8,286046995.5,N
1515617915.7,286046995.3,N
1515617935.5,286046995.3,N
1515617955.3,286046996.3,N
1515617975.2,286046995.1,N
1515617995.0,286046997.2,N
1515617995.9,286046997.2,N
